Weather History for KMOB - December, 2013

Change the Weather History Date:

Saturday, December 21, 2013

  Actual Average Record
Temperature  
Mean Temperature 72 °F 52 °F  
Max Temperature 75 °F 62 °F 79 °F (1998)
Min Temperature 68 °F 41 °F 16 °F (1901)
Degree Days  
Heating Degree Days 0 14  
Month to date heating degree days 211 259  
Since 1 July heating degree days 495 517  
Cooling Degree Days 7 0  
Month to date cooling degree days 27 8  
Year to date cooling degree days 2522 2511  
Growing Degree Days 20 (Base 50)    
Moisture  
Dew Point 70 °F    
Average Humidity 91    
Maximum Humidity 100    
Minimum Humidity 82    
Precipitation  
Precipitation 0.01 in 0.17 in 2.03 in (1918)
Month to date precipitation 1.12 3.36  
Year to date precipitation 63.03 64.45  
Snow  
Snow 0.00 in 0.00 in 0.00 in (2001)
Month to date snowfall 0.0 0.0  
Since 1 July snowfall 0.0 0.0  
Snow Depth 0.00 in    
Sea Level Pressure  
Sea Level Pressure 29.90 in    
Wind  
Wind Speed 16 mph (SSE)    
Max Wind Speed 25 mph    
Max Gust Speed 37 mph    
Visibility 8 miles    
Events      
T = Trace of Precipitation, MM = Missing Value Source: NWS Daily Summary

Daily Weather History Graph

Daily Weather History Graph

Search for Another Location

Airport or City:

Trip Planner

Search our weather history database for the weather conditions in past years. The results will help you decide how hot, cold, wet, or windy it might be!

Date:

Astronomy

Dec. 21, 2013 Rise Set
Actual Time 6:46 AM CST 4:56 PM CST
Civil Twilight 6:19 AM CST 5:22 PM CST
Nautical Twilight 5:49 AM CST 5:52 PM CST
Astronomical Twilight 5:20 AM CST 6:22 PM CST
Moon 8:57 PM CST (12/21) 9:26 AM CST (12/21)
Length of Visible Light 11h 02m
Length of Day
10h 09m
Waning Gibbous, 84% of the Moon is Illuminated
Dec 21
Waning Gibbous
Dec 25
Last Quarter
Jan 1
New
Jan 7
First Quarter
Jan 15
Full

Hourly Weather History & Observations

Time (CST) Temp. Dew Point Humidity Pressure Visibility Wind Dir Wind Speed Gust Speed Precip Events Conditions
12:56 AM 68.0 °F 68.0 °F 100% 29.98 in 7.0 mi SE 13.8 mph - N/A   Overcast
1:56 AM 69.1 °F 69.1 °F 100% 29.98 in 6.0 mi SE 13.8 mph - 0.00 in   Overcast
2:56 AM 68.0 °F 68.0 °F 100% 29.96 in 5.0 mi SSE 10.4 mph - N/A   Overcast
3:56 AM 69.1 °F 69.1 °F 100% 29.95 in 7.0 mi SSE 13.8 mph - N/A   Overcast
4:14 AM 69.1 °F 69.1 °F 100% 29.94 in 8.0 mi SSE 13.8 mph - N/A   Overcast
4:56 AM 70.0 °F 69.1 °F 97% 29.94 in 10.0 mi SSE 13.8 mph - N/A   Overcast
5:35 AM 70.0 °F 69.1 °F 97% 29.94 in 10.0 mi South 11.5 mph - N/A   Overcast
5:56 AM 70.0 °F 69.1 °F 97% 29.92 in 6.0 mi SSE 16.1 mph 23.0 mph N/A   Overcast
6:56 AM 71.1 °F 70.0 °F 96% 29.93 in 6.0 mi SSE 17.3 mph 24.2 mph N/A   Overcast
7:56 AM 71.1 °F 70.0 °F 96% 29.93 in 5.0 mi South 17.3 mph 25.3 mph N/A   Overcast
8:56 AM 72.0 °F 70.0 °F 93% 29.93 in 6.0 mi South 16.1 mph 24.2 mph N/A   Overcast
9:24 AM 73.0 °F 70.0 °F 90% 29.94 in 6.0 mi SSE 20.7 mph 28.8 mph N/A   Overcast
9:56 AM 73.9 °F 70.0 °F 87% 29.93 in 6.0 mi SSE 15.0 mph 26.5 mph N/A   Overcast
10:39 AM 75.0 °F 70.0 °F 84% 29.92 in 7.0 mi South 21.9 mph 36.8 mph N/A   Overcast
10:56 AM 73.9 °F 71.1 °F 91% 29.91 in 6.0 mi South 20.7 mph 29.9 mph N/A   Overcast
11:24 AM 73.9 °F 71.1 °F 91% 29.91 in 6.0 mi South 18.4 mph 32.2 mph N/A   Overcast
11:56 AM 73.9 °F 71.1 °F 91% 29.89 in 6.0 mi SSE 18.4 mph 32.2 mph N/A   Overcast
12:56 PM 75.0 °F 70.0 °F 84% 29.87 in 7.0 mi South 19.6 mph 29.9 mph N/A   Overcast
1:38 PM 75.0 °F 71.1 °F 87% 29.87 in 7.0 mi South 19.6 mph 28.8 mph N/A   Overcast
1:52 PM 75.2 °F 71.6 °F 89% 29.86 in 7.0 mi SSE 18.4 mph 24.2 mph N/A   Overcast
1:56 PM 75.0 °F 71.1 °F 87% 29.86 in 7.0 mi SSE 16.1 mph 24.2 mph N/A   Overcast
2:56 PM 73.9 °F 71.1 °F 91% 29.86 in 9.0 mi South 16.1 mph 26.5 mph 0.00 in   Overcast
3:56 PM 73.9 °F 71.1 °F 91% 29.86 in 10.0 mi SSE 15.0 mph 26.5 mph N/A   Overcast
4:56 PM 72.0 °F 70.0 °F 93% 29.86 in 8.0 mi SSE 17.3 mph 23.0 mph N/A   Overcast
5:29 PM 72.0 °F 70.0 °F 93% 29.88 in 9.0 mi SSE 12.7 mph - N/A   Overcast
5:56 PM 72.0 °F 70.0 °F 93% 29.87 in 9.0 mi SSE 15.0 mph - N/A   Overcast
6:10 PM 72.0 °F 70.0 °F 93% 29.88 in 9.0 mi SSE 15.0 mph 24.2 mph N/A   Overcast
6:19 PM 72.0 °F 70.0 °F 93% 29.88 in 9.0 mi SSE 12.7 mph 21.9 mph N/A   Overcast
6:56 PM 72.0 °F 70.0 °F 93% 29.88 in 10.0 mi SSE 15.0 mph - N/A   Overcast
7:32 PM 72.0 °F 70.0 °F 93% 29.89 in 10.0 mi SSE 18.4 mph 25.3 mph N/A   Overcast
7:56 PM 72.0 °F 70.0 °F 93% 29.89 in 10.0 mi SSE 23.0 mph 32.2 mph N/A   Overcast
8:56 PM 72.0 °F 70.0 °F 93% 29.88 in 10.0 mi SSE 17.3 mph 29.9 mph N/A   Overcast
9:56 PM 73.0 °F 70.0 °F 90% 29.89 in 10.0 mi South 18.4 mph 26.5 mph N/A   Overcast
10:56 PM 73.0 °F 71.1 °F 93% 29.90 in 10.0 mi South 11.5 mph - N/A   Overcast
11:56 PM 72.0 °F 71.1 °F 97% 29.88 in 10.0 mi South 17.3 mph 29.9 mph 0.01 in   Overcast